AQI (35)

Current Conditions for Foresthill, CA. Cloudy with Clear patches , Dry   
Visibility: 10 miles
Cloud ht: 6,000 ft
Space WX Alerts: ALERT:  Geomagnetic K-index of 4 ( Latest Alert ) - Issue Time: 2018 Dec 09 2304 UTC

  Summary / Temperature 

Current Temperature
41.4°F
5.2°C
(24/hr Ago)
40.5°F
(Apparent temp)
37.8°F
Cool
Wind Chill Graphs
41.4°F 
Wind Chill-Avg
41.3°F 5.2°C
 --- Virtual Temp: 42.7°F ---

 Temp Rate:

 24/hr Difference:

 Avg Running Temp:

 Todays High:

 Todays Low:

 Y-days High:

 Y-days Low:

 Todays WChill:

 Y-days WChill:

 Evapotranspiration:

-0.1°F/hr 

+0.9°F

41.6°F

42.2°F 1:34am

41.4°F 3:42am

51.7°F 1:11pm

39.6°F 5:51am

32.7°F 1:02am

30.3°F 6:14am

0.002 in

115' Above Ground

 Temperature:

 6'AGL VRS 115'AGL:

 Avg Running Temp:

 Humidity:

 Todays High:

 Todays Low:

 Y-days High:

 Y-days Low:

46.0°F 

+4.6°F

45.2°F

49% 

46.0°F 12:00am

45.0°F 12:06am

55.0°F 11:06am

43.0°F 2:24am

Temp & Humidity Graphs

  Wind 

Wind Speed

 Calm

Gusting to

 6.0 mph

Wind from E

96°  E

Calm

 Avg speed:

 Wind Run:

 Peak Gust:

Calm 

8.0 miles

  20.0 mph 12:56am

  Almanac  

Moon age: 2 days,22 hours,42 minutes,10%

Waxing Crescent
10%
Illuminated
2 days in cycle

 Moonrise:

 Moonset:

 Sunrise:

 Sunset:

 Solar Noon:

9:54am

7:51pm

7:10am

4:40pm

11:56am

0min 49s less daylight tomorrow 

  Solar Radiation 

(Current Solar)
  No Sun Light
(Todays High)
 None@12:00am

Rain

 Rain Today:

 Rain Rate (/hr):

 Rain last hour:

 Rain Yesterday:

 This Month:

 Season Total:

4 Days Since Last Rain Day

0.00 in

0.000 in

0.00 in

0.00 in

1.05 in

9.55 in

Updated Time

Updated: 12/10/18  4:15am

(Updated  sec ago)

Humidity & Barometer

 Humidity:

 Wetbulb:

 Dew Point:

 Barometer:

69% 

37.8°F 

32.0°F 

30.265 inHg 

 Baro Trend:  Steady 
Northern Calif
Preparedness
Fire 
Level 

    UV Index  

(Current UV)
0.0  None
(Todays High) @ 12:00am
0.0   None

National Weather Service Forecast

Overnight

Overnight: Chance Rain Showers
Chance Rain Showers
Monday

Monday: Chance Rain Showers
Chance Rain Showers
Monday
Night
Monday Night: Mostly Clear
Mostly Clear
Tuesday

Tuesday: Sunny
Sunny
Tuesday
Night
Tuesday Night: Partly Cloudy
Partly Cloudy
Wednesday

Wednesday: Mostly Sunny
Mostly Sunny
Lo 40 °F Hi 50 °F ↓ Lo 39 °F Hi 52 °F Lo 39 °F Hi 56 °F

Foresthill Probe 2 Stats  
Foresthill Probe 2: is located on Thomas Street
at 3000 feet. The main Foresthill Weather site
is located on Melody ln at the 2860 foot elevation

Calm
39.1°F
3.9°C
Temp Rate:
0°F
Calm
Gusting to
1.0 mph
(Humidity)
74%
Wind from SE
130°  SE
Updated: 10/12/18 - 04:10:36
 Todays High: 40.0°F 00:00
 Todays Low: 39.0°F 01:12
 Rain Today: 0.00 in
 Season Total: 9.72 in

Foresthill Wx: Monthly,Yearly, Highs and Lows 

Foresthill  
This Weather Data is coming from the main Foresthill
Weather site located on Melody ln at the 2860 foot
elevation
Not Foresthill Probe 2
Weather Data
Month
  High
Month
  Low
Year
High
Year
Low
Temp 52.0°F
12/8/18
31.7°F
12/2/18
93.9°F
8/10/18
21.9°F
2/23/18
Humidity 100%
12/1/18
54%
12/9/18
100%
1/8/18
9%
10/15/18
Heat Index 55.1°F
12/8/18
36.0°F
12/3/18
93.3°F
7/25/18
27.1°F
2/20/18
Wind Chill 52.0°F
12/8/18
19.7°F
12/3/18
93.9°F
8/10/18
9.2°F
2/23/18
Wind Gust 25 mph
12/1/18
0 mph
12/1/18
43 mph
3/1/18
0 mph
1/1/18
Barometer 30.41 in
12/9/18
29.92 in
12/5/18
30.55 in
1/27/18
29.53 in
11/29/18
ET 0.05 in
12/7/18
0.00 in
12/1/18
0.25 in
6/24/18
0.00 in
1/1/18
Dew Point 44.0°F
12/8/18
26.3°F
12/3/18
66.9°F
7/24/18
0.7°F
11/8/18
Pacific Satellite US Radar Satellite Imagery Sacramento,CA.  (click to enlarge)
NWS Weather Forecast - Summary
Updated: Sunday, December 9, 2018 - 3:14pm PST
Current Interstate Highway Conditions for I-80 & US-50

[I 80: IN THE SAN FRANCISCO BAY AREA - SOLANO CO]
no traffic restrictions are reported for this area.

[I 80: IN THE NORTHERN CALIFORNIA AREA & SIERRA NEVADA]
no traffic restrictions are reported for this area.

[US 50: IN THE SACRAMENTO VALLEY & THE LAKE TAHOE BASIN]
the westbound connector to southbound sr 99 /in sacramento/ (sacramento co)   Is closed from 11:00pm each night to 5:00am each morning 7 days a week thru 12/15/18 - due to construction - a detour is available
NWS Weather Forecast: Overnight and Monday (Updated: Mon, 10-Dec-2018 1:57am PST)
Overnight

Overnight: Chance Rain Showers
Chance Rain Showers

Lo 40 °F
NWS forecast: A chance of rain showers. Mostly cloudy, with a low around 40. East wind around 5 mph. Chance of precipitation is 30%. New rainfall amounts less than a tenth of an inch possible.
Monday

Monday: Chance Rain Showers
Chance Rain Showers

Hi 50 °F ↓
NWS forecast: A chance of rain showers before 4pm. Partly sunny. High near 50, with temperatures falling to around 48 in the afternoon. North northeast wind around 5 mph. Chance of precipitation is 30%. New rainfall amounts less than a tenth of an inch possible.
YR.NO 10 Day Weather forecast
Last update: 12/09/2018 @ 23:59
Next update: 12/10/2018 @ 12:00
Provided by: 22
      Temperature Precipitation Pressure Wind  
Today
12/10/2018
02:00 06:00 30°F   30.24 inHg Light air from east-northeast 3 mph
  06:00 12:00 32°F 0.06 in 30.21 inHg Light air from east-northeast 3 mph
  12:00 18:00 48°F   30.17 inHg Calm from east-northeast 0 mph
  18:00 00:00 41°F   30.15 inHg Light breeze from north-northeast 4 mph
    (Click to enlarge)
meteogram

    Forecast for next 9 days

      Temperature Precip Pressure Wind  
Tuesday
12/11/2018
00:00 06:00 37°F   30.17 inHg Gentle breeze from east-northeast 9 mph
  06:00 12:00 34°F   30.15 inHg Gentle breeze from east-northeast 8 mph
  12:00 18:00 54°F   30.15 inHg Light air from southwest 3 mph
  18:00 00:00 39°F   30.17 inHg Light air from east 1 mph
      Temperature Precip Pressure Wind  
Wednesday
12/12/2018
00:00 06:00 34°F   30.20 inHg Light air from east-northeast 3 mph
  06:00 12:00 34°F   30.23 inHg Light air from northeast 2 mph
  12:00 18:00 57°F   30.19 inHg Light breeze from north 4 mph
  16:00 22:00 52°F   30.16 inHg Light air from north 2 mph
  22:00 04:00 32°F   30.24 inHg Light breeze from east-northeast 7 mph
      Temperature Precip Pressure Wind  
Thursday
12/13/2018
04:00 10:00 32°F   30.25 inHg Light breeze from east-northeast 4 mph
  10:00 16:00 52°F   30.29 inHg Light air from south-southeast 1 mph
  16:00 22:00 50°F   30.18 inHg Calm from north 0 mph
  22:00 04:00 37°F   30.17 inHg Light breeze from east 6 mph
      Temperature Precip Pressure Wind  
Friday
12/14/2018
04:00 10:00 36°F   30.12 inHg Light breeze from east-northeast 5 mph
  10:00 16:00 50°F   30.16 inHg Light breeze from south-southeast 4 mph
  16:00 22:00 46°F 0.19 in 30.12 inHg Light breeze from southwest 6 mph
  22:00 04:00 41°F 0.09 in 30.17 inHg Light breeze from east-southeast 4 mph
      Temperature Precip Pressure Wind  
Saturday
12/15/2018
04:00 10:00 43°F   30.13 inHg Light air from east 3 mph
  10:00 16:00 46°F   30.12 inHg Light breeze from east 4 mph
  16:00 22:00 50°F   30.02 inHg Light air from west 3 mph
  22:00 04:00 41°F   30.04 inHg Light breeze from east 7 mph
      Temperature Precip Pressure Wind  
Sunday
12/16/2018
04:00 10:00 39°F   29.98 inHg Light breeze from east 5 mph
  10:00 16:00 55°F   29.99 inHg Light breeze from south 5 mph
  16:00 22:00 52°F   29.91 inHg Gentle breeze from south-southeast 9 mph
  22:00 04:00 45°F 0.07 in 29.98 inHg Light air from east 3 mph
      Temperature Precip Pressure Wind  
Monday
12/17/2018
04:00 10:00 41°F 0.14 in 30.04 inHg Light breeze from east-southeast 5 mph
  10:00 16:00 43°F   30.20 inHg Calm from north-northeast 0 mph
  16:00 22:00 48°F   30.13 inHg Light air from west-southwest 2 mph
  22:00 04:00 34°F   30.22 inHg Light breeze from east-northeast 5 mph
      Temperature Precip Pressure Wind  
Tuesday
12/18/2018
04:00 10:00 32°F   30.26 inHg Light breeze from east-northeast 5 mph
  10:00 16:00 50°F   30.30 inHg Light air from east-northeast 2 mph
  16:00 22:00 52°F   30.24 inHg Light air from west-northwest 2 mph
  22:00 04:00 37°F   30.24 inHg Light breeze from east-northeast 6 mph
      Temperature Precip Pressure Wind  
Wednesday
12/19/2018
04:00 10:00 36°F   30.22 inHg Light breeze from east-northeast 5 mph
  10:00 16:00 55°F   30.27 inHg Light air from east-northeast 1 mph

NOAA Local Storm Report
2 MILES NORTH OF FORT CROCKETT   ( More )
DATE
12/08/2018
TIME
1:30 AM
COUNTY
GALVESTON
STATE
TX
GEOGRAPHIC
29.30N 94.82W
SOURCE
EMERGENCY MNGR
FLASH FLOOD
sections of harborside drive were impassable due to high water.
How Close Are We To this Month's Temperature Record ?
Updated Monday, Dec 10, 2018- 4:10:01 AM

Current Temperature: 41.4°F

December's High: Temperature Record 65.8°F - Set on Tue, Dec 17, 2013 - 1:22:00 PM
We are currently 24.4°F Less than this Month's record High

December's Low: Temperature Record 20.2°F - Set on Sun, Dec 8, 2013 - 7:26:00 AM
We are currently 21.2°F More than this Month's record Low

Weather History For Monday, December 10, 2018


On this Day - In Weather History ...
Data courtesy of weatherforyou.com
powered by Cumulus v1.9.3 (1059)
Ambient Weather VWS v14.00
Top Contact Website Map Copyright © 2007 - 2018 Foresthillweather.com Never base important decisions on this or any weather information obtained from the Internet